Location: Isle of Man Observatory
(54.1776°N, 4.6264°W)
Time: 13:25:32
(UTC+02:00)

Envisat - Visible Passes

Search period start: 21 September 2018 00:00
Search period end: 01 October 2018 00:00
Orbit: 764 x 766 km, 98.2° (Epoch: 20 September)

Date Brightness Start Highest point End Pass type
(mag) Time Alt. Az. Time Alt. Az. Time Alt. Az.
21 Sep 3.9 21:34:25 10° S 21:39:23 53° W 21:44:23 10° NNW visible
22 Sep 3.0 20:57:28 10° SSE 21:02:34 84° ENE 21:07:40 10° NNW visible
22 Sep 5.6 22:38:47 10° SW 22:42:16 18° W 22:45:46 10° NW visible
23 Sep 4.7 22:00:31 10° SSW 22:05:06 34° W 22:09:44 10° NNW visible
24 Sep 3.5 21:23:07 10° S 21:28:09 64° WSW 21:33:14 10° NNW visible
24 Sep 6.0 23:06:35 10° W 23:08:14 11° W 23:09:53 10° WNW visible
25 Sep 3.0 20:46:20 10° SSE 20:51:23 70° ENE 20:56:29 10° NNW visible
25 Sep 5.4 22:27:02 10° SW 22:30:56 22° W 22:34:52 10° NW visible
26 Sep 4.3 21:49:04 10° SSW 21:53:51 40° W 21:58:40 10° NNW visible
27 Sep 3.2 21:11:52 10° S 21:16:57 77° WSW 21:22:04 10° NNW visible
27 Sep 5.8 22:54:14 10° WSW 22:56:52 14° W 22:59:32 10° NW visible
28 Sep 3.1 20:35:15 10° SSE 20:40:14 59° ENE 20:45:15 10° N visible
28 Sep 5.1 22:15:24 10° SSW 22:19:38 26° W 22:23:55 10° NW visible
29 Sep 4.0 21:37:41 10° S 21:42:36 49° W 21:47:33 10° NNW visible
30 Sep 3.0 21:00:40 10° SSE 21:05:46 89° ENE 21:10:54 10° NNW visible
30 Sep 5.7 22:42:15 10° SW 22:45:31 17° W 22:48:49 10° NW visible
